This demonstration page uses our WeatherBlox Daily Observations layout. Learn more.

Left ArrowRight Arrow

38.20091, -84.87328

Hourly Observations for April 9, 2020

Temp ( °F °C ) Dew Point ( °F °C ) Humidity (%) Winds ( mph kmh ) Pressure ( in mb ) Visibility ( mi km ) Precip ( " mm )
12:07 am 00:07 Cloudy with Rain 59 15 54 12.2 83 83 NNW 13 20 29.69 1005 5 8 0.04 1.02
12:10 am 00:10 Cloudy with Strong Thunderstorms 59 15 54 12.2 83 83 NW 12 19 29.69 1005 3 4 0.06 1.52
12:23 am 00:23 Cloudy with Rain 58 14.4 55 12.8 90 90 NNW 8 13 29.68 1005 4 6 0.12 3.05
12:53 am 00:53 Cloudy with Light Rain 60 15.6 53 11.7 78 78 SW 10 17 29.59 1002 8 13 0.22 5.59
1:53 am 01:53 Cloudy 58 14.4 54 12.2 87 87 WSW 5 7 29.58 1002 10 16 0.01 0.25
2:53 am 02:53 Cloudy 59 15 54 12.2 83 83 WSW 8 13 29.62 1003 10 16 0.00 0.00
3:53 am 03:53 Partly Cloudy 58 14.4 54 12.2 87 87 W 8 13 29.63 1003 10 16 0.00 0.00
4:37 am 04:37 Mostly Cloudy 59 15 55 12.8 87 87 WNW 10 17 29.66 1004 10 16 0.00 0.00
4:53 am 04:53 Mostly Cloudy 59 15 54 12.2 83 83 WNW 9 15 29.64 1004 10 16 0.00 0.00
5:53 am 05:53 Cloudy 56 13.3 48 8.9 75 75 WNW 15 24 29.68 1005 10 16 0.00 0.00
6:53 am 06:53 Cloudy 52 11.1 44 6.7 75 75 NW 15 24 29.73 1007 10 16 0.00 0.00
7:43 am 07:43 Mostly Cloudy 51 10.6 42 5.6 71 71 WNW 10 17 29.78 1008 10 16 0.00 0.00
7:53 am 07:53 Cloudy 51 10.6 41 5 69 69 WNW 14 22 29.76 1008 10 16 0.00 0.00
8:12 am 08:12 Cloudy 51 10.6 41 5 69 69 NW 12 19 29.80 1009 10 16 0.00 0.00
8:51 am 08:51 Mostly Cloudy 50 10 37 3 62 62 NW 15 24 29.83 1010 10 16 0.00 0.00
8:53 am 08:53 Mostly Cloudy 50 10 37 2.8 61 61 WNW 13 20 29.81 1010 10 16 0.00 0.00
9:53 am 09:53 Sunny 51 10.6 27 -2.8 39 39 WNW 10 17 29.82 1010 10 16 0.00 0.00
10:53 am 10:53 Sunny 52 11.1 24 -4.4 34 34 W 13 20 29.83 1010 10 16 0.00 0.00
11:53 am 11:53 Sunny 54 12.2 23 -5 30 30 NW 17 28 29.83 1010 10 16 0.00 0.00
12:53 pm 12:53 Sunny 56 13.3 26 -3.3 32 32 WNW 10 17 29.82 1010 10 16 0.00 0.00
1:53 pm 13:53 Sunny 57 13.9 24 -4.4 28 28 WNW 12 19 29.80 1009 10 16 0.00 0.00
2:53 pm 14:53 Sunny 57 13.9 22 -5.6 26 26 W 17 28 29.77 1008 10 16 0.00 0.00
3:53 pm 15:53 Sunny 57 13.9 23 -5 27 27 W 17 28 29.75 1007 10 16 0.00 0.00
4:53 pm 16:53 Sunny 57 13.9 24 -4.4 28 28 WNW 13 20 29.74 1007 10 16 0.00 0.00
5:53 pm 17:53 Sunny 56 13.3 21 -6.1 26 26 WNW 18 30 29.75 1008 10 16 0.00 0.00
6:53 pm 18:53 Partly Cloudy 54 12.2 22 -5.6 29 29 WNW 17 28 29.77 1008 10 16 0.00 0.00
7:53 pm 19:53 Mostly Cloudy 52 11.1 24 -4.4 34 34 W 8 13 29.78 1008 10 16 0.00 0.00
8:53 pm 20:53 Cloudy 51 10.6 25 -3.9 36 36 W 5 7 29.78 1009 10 16 0.00 0.00
9:53 pm 21:53 Cloudy 50 10 28 -2.2 43 43 NNW 18 30 29.82 1010 10 16 0.00 0.00
10:53 pm 22:53 Cloudy 47 8.3 31 -0.6 54 54 N 10 17 29.84 1011 10 16 0.00 0.00
11:53 pm 23:53 Cloudy 44 6.7 32 0 63 63 NNW 8 13 29.85 1011 10 16 0.00 0.00

Powered by AerisWeather